Location: Newark
(7.1028°S, 35.3258°W)
Time: 14:46:24
(UTC+00:00)

Vanguard 3 - Pass Details

Date: 27 February 2020
Orbit: 508 x 3263 km, 33.4° (Epoch: 05 April)

Event Time Altitude Azimuth Distance (km) Brightness Sun altitude
Rises 18:58:04 0° 303° (WNW) 5,673 12.2 24.7°
Reaches altitude 10° 19:01:15 10° 303° (WNW) 4,965 12.1 23.9°
Maximum altitude 19:17:16 83° 216° (SW) 3,118 10.5 19.9°
Drops below altitude 10° 19:37:37 10° 127° (SE) 6,066 11.2 14.9°
Sets 19:42:01 0° 126° (SE) 6,922 11.5 13.8°
